TimeCDT,TemperatureF,Dew PointF,Humidity,Sea Level PressureIn,VisibilityMPH,Wind Direction,Wind SpeedMPH,Gust SpeedMPH,PrecipitationIn,Events,Conditions,WindDirDegrees,DateUTC
12:53 AM,75.9,70.0,82,30.01,10.0,NNE,5.8,-,N/A,,Clear,20,2013-08-01 05:53:00
1:53 AM,73.9,69.1,85,30.00,10.0,NNE,4.6,-,N/A,,Clear,20,2013-08-01 06:53:00
2:53 AM,73.0,69.1,87,30.00,7.0,North,3.5,-,N/A,,Mostly Cloudy,10,2013-08-01 07:53:00
3:53 AM,71.1,66.9,87,30.00,10.0,North,4.6,-,N/A,,Clear,350,2013-08-01 08:53:00
4:53 AM,70.0,66.0,87,30.00,9.0,Calm,Calm,-,N/A,,Clear,0,2013-08-01 09:53:00
5:53 AM,69.1,66.0,90,30.03,9.0,Calm,Calm,-,N/A,,Partly Cloudy,0,2013-08-01 10:53:00
6:53 AM,70.0,66.0,87,30.04,8.0,NNW,4.6,-,N/A,,Clear,340,2013-08-01 11:53:00
7:53 AM,73.0,66.9,81,30.06,10.0,North,5.8,-,N/A,,Clear,350,2013-08-01 12:53:00
8:53 AM,75.9,68.0,76,30.07,10.0,North,6.9,-,N/A,,Clear,10,2013-08-01 13:53:00
9:53 AM,80.1,66.0,62,30.07,10.0,North,5.8,-,N/A,,Clear,10,2013-08-01 14:53:00
10:53 AM,81.0,66.0,60,30.07,10.0,ENE,5.8,-,N/A,,Clear,70,2013-08-01 15:53:00
11:53 AM,82.9,66.9,58,30.06,10.0,Variable,4.6,-,N/A,,Clear,0,2013-08-01 16:53:00
12:53 PM,82.0,66.0,58,30.06,10.0,ENE,4.6,-,N/A,,Scattered Clouds,60,2013-08-01 17:53:00
1:53 PM,84.9,66.0,53,30.04,10.0,Calm,Calm,-,N/A,,Scattered Clouds,0,2013-08-01 18:53:00
2:53 PM,86.0,66.9,53,30.02,10.0,East,4.6,-,N/A,,Clear,80,2013-08-01 19:53:00
3:53 PM,87.1,68.0,53,30.01,10.0,West,4.6,-,N/A,,Scattered Clouds,260,2013-08-01 20:53:00
4:53 PM,89.1,66.0,46,30.00,10.0,Calm,Calm,-,N/A,,Clear,0,2013-08-01 21:53:00
5:53 PM,86.0,69.1,57,29.99,10.0,SW,4.6,-,N/A,,Partly Cloudy,220,2013-08-01 22:53:00
6:53 PM,84.0,70.0,63,29.98,10.0,SSW,4.6,-,N/A,,Partly Cloudy,200,2013-08-01 23:53:00
7:53 PM,81.0,71.1,72,29.98,10.0,Calm,Calm,-,N/A,,Clear,0,2013-08-02 00:53:00
8:53 PM,77.0,73.0,88,29.98,10.0,Calm,Calm,-,N/A,,Clear,0,2013-08-02 01:53:00
9:53 PM,75.9,72.0,87,30.00,10.0,Calm,Calm,-,N/A,,Clear,0,2013-08-02 02:53:00
10:53 PM,75.0,72.0,90,30.00,7.0,Calm,Calm,-,N/A,,Scattered Clouds,0,2013-08-02 03:53:00
11:53 PM,73.9,71.1,91,30.00,8.0,Calm,Calm,-,N/A,,Clear,0,2013-08-02 04:53:00